Flag for Canada Weather past 2 weeks in Pickering, Ontario, Canada

Now
77 °F

Partly sunny.


Feels Like: 79 °F
Forecast: 60 / 77 °F
Wind: 9 mph from Southwest

Location: Toronto Buttonville

Current Time: Jul 26, 2014 at 1:26:03 PM

Latest Report: Jul 26, 2014 at 1:00 PM


Visibility: 15 mi

Pressure: 29.88 "Hg

Humidity: 54%

Dew point: 59 °F

Location of PickeringLocation

Historic Weather in Pickering — Graph

°F

Pickering temperature yesterday

Maximum temperature yesterday: 77 °F (at 3:00 PM)
Minimum temperature yesterday: 52 °F (at 4:00 AM)
Average temperature yesterday: 66 °F

Past Weeks' High & Low Weather Summary

 TemperatureHumidityPressure
High84 °F (Jul 12, 4:00 PM)100% (Jul 20, 4:00 AM)30.25 "Hg (Jul 20, 4:00 AM)
Low48 °F (Jul 17, 6:00 AM)33% (Jul 18, 8:00 PM)29.66 "Hg (Jul 15, 2:00 PM)
Average67 °F69%30.00 "Hg
* Reported Jul 11 12:00 Noon — Jul 26 12:00 Noon, Pickering, Weather by CustomWeather, © 2014

Note: Actual official high and low records may vary slightly from our data, if they occured in-between our weather recording intervals... More about our weather records

Advertising

Pickering weather history for previous 24 hours

 ConditionsComfort  
Time TempWeatherWind HumidityBarometerVisibility
12:00 PM
Jul 26
75 °FPartly sunny.7 mph57%29.90 "Hg15 mi
11:00 AM72 °FPartly sunny.2 mph65%29.91 "Hg15 mi
10:00 AM68 °FPartly sunny.6 mph73%29.92 "Hg12 mi
9:00 AM68 °FPartly sunny.No wind73%29.92 "Hg12 mi
8:50 AMN/APartly sunny.No windN/AN/A12 mi
8:00 AM64 °FSprinkles. Partly sunny.3 mph83%29.94 "Hg12 mi
7:45 AMN/ASprinkles.3 mphN/AN/A12 mi
7:00 AM61 °FPartly sunny.2 mph94%29.92 "Hg15 mi
6:00 AM61 °FPassing clouds.2 mph83%29.93 "Hg15 mi
5:00 AM63 °FPassing clouds.3 mph77%29.92 "Hg15 mi
4:00 AM59 °FPassing clouds.No wind88%29.92 "Hg15 mi
3:00 AM63 °FPassing clouds.2 mph73%29.92 "Hg15 mi
2:00 AM64 °FClear.2 mph68%29.93 "Hg15 mi
1:00 AM66 °FClear.6 mph64%29.95 "Hg15 mi
12:00 AM68 °FClear.6 mph64%29.95 "Hg15 mi
11:00 PM
Jul 25
68 °FPassing clouds.9 mph64%29.95 "Hg15 mi
10:00 PM72 °FPassing clouds.7 mph57%29.95 "Hg15 mi
9:00 PM72 °FPartly sunny.5 mph50%29.94 "Hg15 mi
8:00 PM75 °FBroken clouds.7 mph44%29.93 "Hg15 mi
7:00 PM75 °FPartly sunny.8 mph44%29.94 "Hg15 mi
6:00 PM77 °FPartly sunny.7 mph42%29.94 "Hg15 mi
5:00 PM77 °FPartly sunny.6 mph42%29.95 "Hg15 mi
4:00 PM77 °FScattered clouds.7 mph42%29.97 "Hg15 mi
3:00 PM77 °FScattered clouds.10 mph42%29.98 "Hg15 mi
2:00 PM75 °FScattered clouds.2 mph44%29.99 "Hg15 mi
1:00 PM75 °FScattered clouds.7 mph41%30.01 "Hg15 mi
Weather by CustomWeather, © 2014

See weather overviewHow to use our weather pages